period_start,C,m1,H,J0,J1,J2,J3,J4,J5,JA,JB,JC,JD,JJ,JK,JN,#
2014-06-20 00:02:29,0.00,0.01,0.00,23.95,28.52,30.95,9.51,39.46,1017.10,2034.95,3473.00,3320.00,3614.00,500.04,495.43,0.51,0000 0000 0000 0000 000000
2014-06-20 00:07:30,0.00,0.01,0.00,23.94,28.50,30.94,9.46,39.38,1017.10,2034.96,3473.00,3320.00,3613.99,499.63,494.98,0.55,0000 0000 0000 0000 000000
2014-06-20 00:12:31,0.01,0.01,0.00,23.92,28.50,30.92,9.53,39.34,1017.10,2034.98,3472.47,3319.93,3613.76,499.80,495.29,0.59,0000 0000 0000 0000 000000
2014-06-20 00:17:32,0.02,0.01,0.00,23.90,28.49,30.91,9.62,39.58,1017.11,2034.99,3472.04,3319.77,3613.18,500.26,495.74,0.63,0000 0000 0000 0000 000000
2014-06-20 00:22:34,0.01,0.01,0.00,23.90,28.47,30.90,9.50,39.54,1017.12,2034.99,3472.00,3319.60,3613.03,499.98,495.63,0.67,0000 0000 0000 0000 000000
2014-06-20 00:27:35,0.01,0.01,0.00,23.89,28.47,30.90,9.62,39.57,1017.15,2034.99,3472.00,3319.20,3613.00,500.29,495.74,0.72,0000 0000 0000 0000 000000
2014-06-20 00:32:36,0.00,0.01,0.00,23.89,28.46,30.89,9.63,39.47,1017.32,2034.99,3471.95,3319.08,3613.00,500.03,495.53,0.76,0000 0000 0000 0000 000000
2014-06-20 00:37:36,0.01,0.01,0.00,23.90,28.45,30.88,9.47,39.40,1017.42,2034.99,3471.67,3319.08,3612.99,499.68,495.27,0.80,0000 0000 0000 0000 000000
2014-06-20 00:42:37,0.01,0.01,0.00,23.89,28.45,30.86,9.56,39.39,1017.43,2035.00,3471.14,3319.02,3612.78,499.85,495.48,0.84,0000 0000 0000 0000 000000
2014-06-20 00:47:39,0.01,0.01,0.00,23.89,28.43,30.86,9.58,39.48,1017.52,2035.00,3470.90,3319.00,3612.22,499.71,495.29,0.88,0000 0000 0000 0000 000000
2014-06-20 00:52:40,0.01,0.01,0.00,23.90,28.42,30.85,9.59,39.63,1017.54,2035.00,3470.40,3318.98,3612.02,499.62,495.28,0.92,0000 0000 0000 0000 000000
2014-06-20 00:57:41,0.00,0.02,0.00,23.89,28.42,30.84,9.55,39.47,1017.58,2035.01,3470.03,3318.95,3612.00,500.15,495.81,0.97,0000 0000 0000 0000 000000
2014-06-20 01:02:42,0.01,0.02,0.00,23.89,28.41,30.83,9.57,39.44,1017.59,2035.01,3470.00,3318.80,3611.99,499.91,495.60,1.01,0000 0000 0000 0000 000000
2014-06-20 01:07:43,0.01,0.02,0.00,23.89,28.40,30.81,9.63,39.46,1017.59,2035.02,3469.98,3318.51,3611.93,500.46,496.11,1.05,0000 0000 0000 0000 000000
2014-06-20 01:12:44,0.03,0.02,0.00,23.88,28.40,30.81,9.66,39.52,1017.59,2035.00,3469.66,3318.11,3611.46,500.06,495.82,1.09,0000 0000 0000 0000 000000
2014-06-20 01:17:45,0.02,0.02,0.00,23.87,28.40,30.80,9.69,39.43,1017.59,2035.04,3469.15,3318.02,3611.11,500.23,495.90,1.13,0000 0000 0000 0000 000000
2014-06-20 01:22:46,0.00,0.02,0.00,23.88,28.38,30.79,9.58,39.47,1017.61,2035.04,3469.02,3318.00,3611.03,499.91,495.48,1.18,0000 0000 0000 0000 000000
2014-06-20 01:27:46,-0.00,0.02,0.00,23.88,28.37,30.77,9.57,39.52,1017.66,2035.03,3469.00,3318.00,3611.00,500.40,495.95,1.22,0000 0000 0000 0000 000000
2014-06-20 01:32:47,0.01,0.02,0.00,23.87,28.37,30.77,9.63,39.43,1017.69,2035.07,3468.97,3318.00,3611.00,500.28,496.09,1.26,0000 0000 0000 0000 000000
2014-06-20 01:37:48,0.01,0.02,0.00,23.87,28.37,30.76,9.57,39.38,1017.70,2035.08,3468.50,3317.99,3610.90,500.13,495.87,1.30,0000 0000 0000 0000 000000
2014-06-20 01:42:50,0.02,0.02,0.00,23.88,28.35,30.76,9.55,39.46,1017.69,2035.15,3468.06,3317.96,3610.72,499.90,495.68,1.34,0000 0000 0000 0000 000000
2014-06-20 01:47:51,0.02,0.02,0.00,23.89,28.35,30.75,9.53,39.56,1017.62,2035.28,3468.02,3317.94,3610.43,500.05,495.79,1.38,0000 0000 0000 0000 000000
2014-06-20 01:52:52,0.02,0.02,0.00,23.87,28.35,30.74,9.54,39.44,1017.61,2035.41,3467.99,3317.77,3610.06,499.81,495.43,1.43,0000 0000 0000 0000 000000
2014-06-20 01:57:53,0.04,0.02,0.00,23.87,28.35,30.75,9.57,39.43,1017.60,2035.60,3467.96,3317.51,3610.01,499.98,495.64,1.47,0000 0000 0000 0000 000000
2014-06-20 02:02:55,0.02,0.02,0.00,23.89,28.34,30.74,9.54,39.42,1017.60,2035.82,3467.56,3317.18,3610.00,500.11,495.81,1.51,0000 0000 0000 0000 000000
2014-06-20 02:07:56,-0.00,0.02,0.00,23.90,28.33,30.72,9.55,39.41,1017.64,2035.72,3467.04,3317.01,3609.97,500.18,495.92,1.55,0000 0000 0000 0000 000000
2014-06-20 02:12:57,-0.01,0.02,0.00,23.92,28.32,30.72,9.52,39.48,1017.75,2035.65,3467.00,3316.99,3609.67,500.09,495.89,1.59,0000 0000 0000 0000 000000
2014-06-20 02:17:58,0.02,0.03,0.00,23.93,28.32,30.72,9.54,39.66,1017.74,2035.69,3466.99,3316.99,3609.16,500.17,495.78,1.64,0000 0000 0000 0000 000000
2014-06-20 02:22:59,0.01,0.03,0.00,23.93,28.32,30.71,9.61,39.56,1017.72,2035.87,3466.89,3316.98,3609.06,500.02,495.73,1.68,0000 0000 0000 0000 000000
2014-06-20 02:28:01,0.02,0.03,0.00,23.94,28.32,30.71,9.53,39.45,1017.88,2035.88,3466.25,3316.92,3609.01,499.91,495.57,1.72,0000 0000 0000 0000 000000
2014-06-20 02:33:02,0.01,0.03,0.00,23.93,28.32,30.71,9.62,39.60,1017.97,2035.87,3466.02,3316.91,3609.00,500.08,495.81,1.76,0000 0000 0000 0000 000000
2014-06-20 02:38:03,0.02,0.03,0.00,23.94,28.32,30.70,9.56,39.67,1017.97,2035.92,3466.00,3316.47,3608.98,500.00,495.85,1.80,0000 0000 0000 0000 000000
2014-06-20 02:43:04,0.01,0.03,0.00,23.95,28.32,30.70,9.58,39.58,1017.97,2035.91,3465.96,3316.08,3608.79,500.23,496.07,1.84,0000 0000 0000 0000 000000
2014-06-20 02:48:05,0.02,0.03,0.00,23.97,28.32,30.69,9.58,39.64,1017.91,2035.93,3465.51,3316.01,3608.28,499.84,495.58,1.89,0000 0000 0000 0000 000000
2014-06-20 02:53:06,0.01,0.03,0.00,23.98,28.32,30.71,9.57,39.64,1017.76,2035.90,3465.06,3316.00,3608.02,500.00,495.58,1.93,0000 0000 0000 0000 000000
2014-06-20 02:58:08,-0.02,0.03,0.00,24.00,28.32,30.71,9.60,39.77,1017.74,2035.74,3465.00,3315.98,3607.99,499.92,495.57,1.97,0000 0000 0000 0000 000000
2014-06-20 03:03:09,0.00,0.03,0.00,23.99,28.32,30.69,9.52,39.57,1017.65,2035.70,3464.85,3315.85,3607.91,499.55,495.10,2.01,0000 0000 0000 0000 000000
2014-06-20 03:08:10,0.03,0.03,0.00,23.99,28.32,30.71,9.52,39.65,1017.63,2035.62,3464.22,3315.30,3607.37,499.64,495.16,2.05,0000 0000 0000 0000 000000
2014-06-20 03:13:11,0.00,0.03,0.00,24.02,28.32,30.70,9.58,39.46,1017.76,2035.52,3464.01,3315.04,3607.04,500.12,495.67,2.10,0000 0000 0000 0000 000000
2014-06-20 03:18:12,0.02,0.03,0.00,24.01,28.33,30.71,9.52,39.65,1017.68,2035.66,3464.00,3315.01,3607.01,499.75,495.49,2.14,0000 0000 0000 0000 000000
2014-06-20 03:23:13,-0.03,0.03,0.00,24.04,28.34,30.71,9.52,39.28,1017.62,2035.52,3463.87,3315.00,3606.98,500.14,495.42,2.18,0000 0000 0000 0000 000000
2014-06-20 03:28:14,0.00,0.03,0.00,24.05,28.35,30.72,9.60,39.39,1017.74,2035.30,3463.31,3314.96,3606.77,500.03,495.42,2.22,0000 0000 0000 0000 000000
2014-06-20 03:33:15,0.02,0.03,0.00,24.07,28.35,30.72,9.62,39.56,1017.99,2035.25,3463.02,3314.89,3606.22,500.44,496.00,2.26,0000 0000 0000 0000 000000
2014-06-20 03:38:16,0.01,0.03,0.00,24.08,28.35,30.72,9.56,39.59,1018.08,2035.32,3462.99,3314.48,3606.02,500.07,495.71,2.30,0000 0000 0000 0000 000000
2014-06-20 03:43:16,-0.01,0.03,0.00,24.09,28.35,30.73,9.60,39.59,1018.08,2035.22,3462.86,3314.09,3606.00,500.24,495.73,2.35,0000 0000 0000 0000 000000
2014-06-20 03:48:17,0.01,0.03,0.00,24.10,28.37,30.74,9.56,39.42,1018.08,2035.11,3462.18,3314.00,3605.91,500.07,495.59,2.39,0000 0000 0000 0000 000000
2014-06-20 03:53:18,0.01,0.03,0.00,24.10,28.37,30.74,9.54,39.67,1018.08,2035.03,3462.00,3313.99,3605.39,500.04,495.54,2.43,0000 0000 0000 0000 000000
2014-06-20 03:58:19,0.00,0.03,0.00,24.13,28.37,30.75,9.62,39.48,1018.09,2035.04,3461.99,3313.98,3605.10,500.18,495.65,2.47,0000 0000 0000 0000 000000
2014-06-20 04:03:20,0.01,0.03,0.00,24.15,28.38,30.76,9.52,39.76,1018.09,2035.01,3461.76,3313.72,3605.00,499.51,494.97,2.51,0000 0000 0000 0000 000000
2014-06-20 04:08:21,0.02,0.03,0.00,24.18,28.40,30.76,9.56,39.52,1018.08,2035.01,3461.05,3313.11,3604.96,499.74,495.30,2.56,0000 0000 0000 0000 000000
2014-06-20 04:13:23,0.01,0.03,0.00,24.18,28.40,30.77,9.52,39.42,1018.08,2035.01,3461.00,3313.00,3604.49,500.06,495.29,2.60,0000 0000 0000 0000 000000
2014-06-20 04:18:24,0.00,0.04,0.00,24.19,28.40,30.77,9.60,39.59,1018.09,2035.00,3460.91,3312.99,3604.06,499.99,495.37,2.64,0000 0000 0000 0000 000000
2014-06-20 04:23:24,0.01,0.04,0.00,24.22,28.42,30.78,9.59,39.57,1018.09,2035.00,3460.28,3312.94,3604.00,500.35,495.71,2.68,0000 0000 0000 0000 000000
2014-06-20 04:28:26,0.01,0.04,0.00,24.23,28.42,30.79,9.56,39.52,1018.08,2035.00,3460.02,3312.74,3604.00,499.96,495.47,2.72,0000 0000 0000 0000 000000
2014-06-20 04:33:27,0.01,0.04,0.00,24.24,28.42,30.80,9.56,39.55,1018.08,2035.00,3460.00,3312.25,3603.81,499.83,495.37,2.76,0000 0000 0000 0000 000000
2014-06-20 04:38:28,0.02,0.04,0.00,24.24,28.44,30.81,9.46,39.43,1018.08,2035.00,3459.79,3312.05,3603.28,499.68,495.12,2.81,0000 0000 0000 0000 000000
2014-06-20 04:43:29,0.01,0.04,0.00,24.25,28.45,30.82,9.50,39.48,1018.08,2035.00,3459.20,3312.00,3603.01,500.37,495.48,2.85,0000 0000 0000 0000 000000
2014-06-20 04:48:30,0.00,0.04,0.00,24.27,28.45,30.83,9.49,39.27,1018.09,2035.00,3459.00,3311.99,3603.00,500.01,495.25,2.89,0000 0000 0000 0000 000000
2014-06-20 04:53:31,0.01,0.04,0.00,24.29,28.47,30.84,9.42,39.30,1018.08,2034.98,3458.94,3311.94,3602.82,499.70,495.20,2.93,0000 0000 0000 0000 000000
2014-06-20 04:58:32,0.04,0.04,0.00,24.32,28.47,30.86,9.68,39.38,1018.08,2034.98,3458.37,3311.35,3602.17,500.55,495.59,2.97,0000 0000 0000 0000 000000
2014-06-20 05:03:33,0.00,0.04,0.00,24.34,28.49,30.86,9.54,39.37,1018.08,2034.97,3458.02,3311.07,3602.01,499.79,494.96,3.02,0000 0000 0000 0000 000000
2014-06-20 05:08:34,0.00,0.04,0.00,24.35,28.50,30.87,9.56,39.37,1018.10,2034.98,3457.99,3311.00,3601.98,500.08,495.32,3.06,0000 0000 0000 0000 000000
2014-06-20 05:13:35,0.01,0.04,0.00,24.36,28.50,30.88,9.55,39.22,1018.10,2034.93,3457.73,3310.99,3601.65,499.78,495.00,3.10,0000 0000 0000 0000 000000
2014-06-20 05:18:36,0.02,0.04,0.00,24.37,28.52,30.89,9.65,39.49,1018.10,2034.88,3457.12,3310.78,3601.11,500.31,495.43,3.14,0000 0000 0000 0000 000000
2014-06-20 05:23:38,0.02,0.04,0.00,24.37,28.52,30.90,9.50,39.30,1018.11,2034.90,3457.00,3310.23,3601.01,499.85,495.09,3.18,0000 0000 0000 0000 000000
2014-06-20 05:28:39,-0.01,0.04,0.00,24.40,28.54,30.92,9.52,39.31,1018.10,2034.83,3456.98,3310.02,3601.00,499.97,495.06,3.22,0000 0000 0000 0000 000000
2014-06-20 05:33:40,-0.01,0.04,0.00,24.44,28.55,30.93,9.53,39.33,1018.10,2034.49,3456.43,3310.00,3600.79,499.78,495.06,3.27,0000 0000 0000 0000 000000
2014-06-20 05:38:41,-0.01,0.04,0.00,24.44,28.56,30.94,9.59,39.37,1018.10,2034.31,3456.03,3309.98,3600.24,499.88,494.89,3.31,0000 0000 0000 0000 000000
2014-06-20 05:43:42,-0.01,0.04,0.00,24.45,28.57,30.96,9.60,39.46,1018.11,2034.14,3456.00,3309.79,3600.02,500.12,495.14,3.35,0000 0000 0000 0000 000000
2014-06-20 05:48:43,0.01,0.04,0.00,24.47,28.58,30.96,9.56,39.27,1018.21,2034.10,3455.89,3309.34,3600.00,499.68,494.73,3.39,0000 0000 0000 0000 000000
2014-06-20 05:53:44,0.01,0.04,0.00,24.47,28.60,30.97,9.54,39.42,1018.53,2034.03,3455.29,3309.03,3599.92,499.97,495.26,3.43,0000 0000 0000 0000 000000
2014-06-20 05:58:45,0.01,0.04,0.00,24.50,28.60,30.99,9.63,39.49,1018.57,2034.07,3455.02,3309.00,3599.54,500.05,495.27,3.48,0000 0000 0000 0000 000000
2014-06-20 06:03:46,-0.00,0.04,0.00,24.51,28.62,31.00,9.62,39.45,1018.57,2034.06,3455.00,3308.99,3599.06,500.30,495.41,3.52,0000 0000 0000 0000 000000
2014-06-20 06:08:47,0.00,0.04,0.00,24.52,28.62,31.00,9.57,39.64,1018.57,2034.02,3454.88,3308.92,3599.00,500.15,495.34,3.56,0000 0000 0000 0000 000000
2014-06-20 06:13:49,0.03,0.05,0.00,24.52,28.65,31.02,9.56,39.43,1018.57,2034.00,3454.18,3308.37,3598.94,499.97,494.96,3.60,0000 0000 0000 0000 000000
2014-06-20 06:18:50,0.01,0.05,0.00,24.55,28.65,31.03,9.56,39.58,1018.53,2034.00,3454.00,3308.04,3598.45,499.94,495.08,3.64,0000 0000 0000 0000 000000
2014-06-20 06:23:51,0.05,0.05,0.00,24.55,28.67,31.05,9.62,39.58,1018.52,2034.00,3453.38,3307.51,3597.75,500.40,495.31,3.68,0000 0000 0000 0000 000000
2014-06-20 06:28:52,0.02,0.05,0.00,24.57,28.67,31.05,9.55,39.47,1018.56,2034.00,3452.69,3307.05,3597.21,500.19,495.16,3.73,0000 0000 0000 0000 000000
2014-06-20 06:33:53,0.01,0.05,0.00,24.59,28.70,31.07,9.54,39.54,1018.52,2034.00,3452.09,3307.00,3597.01,500.30,495.20,3.77,0000 0000 0000 0000 000000
2014-06-20 06:38:54,0.00,0.05,0.00,24.60,28.70,31.08,9.55,39.58,1018.51,2033.99,3452.00,3306.98,3596.98,499.86,494.76,3.81,0000 0000 0000 0000 000000
2014-06-20 06:43:56,0.00,0.05,0.00,24.61,28.72,31.08,9.55,39.63,1018.56,2033.99,3451.97,3306.93,3596.95,500.14,495.17,3.85,0000 0000 0000 0000 000000
2014-06-20 06:48:57,0.05,0.05,0.00,24.64,28.72,31.11,9.56,39.73,1018.52,2033.99,3451.46,3306.37,3596.35,500.15,495.06,3.89,0000 0000 0000 0000 000000
2014-06-20 06:53:58,0.01,0.05,0.00,24.66,28.75,31.12,9.53,39.67,1018.37,2033.99,3451.01,3306.02,3596.01,500.11,494.97,3.94,0000 0000 0000 0000 000000
2014-06-20 06:58:59,-0.00,0.05,0.00,24.67,28.75,31.13,9.53,39.56,1018.22,2033.98,3450.94,3306.00,3595.99,499.82,494.56,3.98,0000 0000 0000 0000 000000
2014-06-20 07:04:00,0.02,0.05,0.00,24.70,28.77,31.15,9.50,39.41,1018.17,2033.96,3450.38,3305.94,3595.69,499.94,494.43,4.02,0000 0000 0000 0000 000000
2014-06-20 07:09:01,0.01,0.05,0.00,24.71,28.78,31.16,9.49,39.54,1018.12,2033.87,3450.02,3305.45,3595.08,499.82,494.32,4.06,0000 0000 0000 0000 000000
2014-06-20 07:14:02,-0.02,0.05,0.00,24.73,28.80,31.16,9.46,39.41,1018.17,2033.60,3449.83,3305.01,3594.98,499.59,494.35,4.10,0000 0000 0000 0000 000000
2014-06-20 07:19:03,0.03,0.05,0.00,24.74,28.81,31.18,9.50,39.45,1018.33,2033.60,3449.22,3304.86,3594.65,499.68,494.35,4.14,0000 0000 0000 0000 000000
2014-06-20 07:24:04,0.03,0.06,0.00,24.77,28.82,31.20,9.53,39.58,1018.49,2033.29,3448.13,3303.91,3593.11,500.30,494.95,4.19,0000 0000 0000 0000 000000
2014-06-20 07:29:05,0.01,0.06,0.00,24.76,28.83,31.21,9.51,39.63,1018.34,2033.09,3448.00,3303.21,3592.99,499.99,494.67,4.23,0000 0000 0000 0000 000000
2014-06-20 07:34:06,0.00,0.06,0.00,24.76,28.85,31.22,9.52,39.41,1018.29,2033.07,3447.96,3303.02,3592.87,500.09,494.77,4.27,0000 0000 0000 0000 000000
2014-06-20 07:39:07,0.02,0.06,0.00,24.79,28.86,31.23,9.58,39.58,1018.22,2033.03,3447.36,3303.00,3592.26,500.08,494.77,4.31,0000 0000 0000 0000 000000
2014-06-20 07:44:08,-0.00,0.06,0.00,24.82,28.87,31.24,9.44,39.33,1018.31,2033.01,3447.01,3302.97,3592.00,500.08,494.59,4.35,0000 0000 0000 0000 000000
2014-06-20 07:49:09,0.02,0.06,0.00,24.85,28.88,31.25,9.54,39.43,1018.21,2033.00,3446.97,3302.45,3591.97,500.06,494.49,4.40,0000 0000 0000 0000 000000
2014-06-20 07:54:10,0.01,0.06,0.00,24.86,28.90,31.27,9.54,39.48,1018.25,2033.00,3446.75,3302.16,3591.92,500.15,494.45,4.44,0000 0000 0000 0000 000000
2014-06-20 07:59:12,0.03,0.06,0.00,24.88,28.91,31.27,9.45,39.42,1018.28,2033.00,3446.07,3302.01,3591.19,499.66,494.01,4.48,0000 0000 0000 0000 000000
2014-06-20 08:04:13,0.00,0.06,0.00,24.91,28.92,31.29,9.50,39.33,1018.45,2033.00,3445.99,3301.99,3591.00,499.89,494.47,4.52,0000 0000 0000 0000 000000
2014-06-20 08:09:13,0.02,0.06,0.00,24.93,28.94,31.30,9.55,39.37,1018.38,2032.99,3445.51,3301.73,3590.93,500.21,494.61,4.56,0000 0000 0000 0000 000000
2014-06-20 08:14:15,0.03,0.06,0.00,24.96,28.95,31.31,9.55,39.33,1018.36,2032.99,3445.06,3301.18,3590.50,500.56,495.04,4.60,0000 0000 0000 0000 000000
2014-06-20 08:19:16,0.00,0.06,0.00,24.98,28.96,31.32,9.52,39.39,1018.29,2032.98,3445.00,3301.02,3590.03,499.91,494.15,4.65,0000 0000 0000 0000 000000
2014-06-20 08:24:17,-0.00,0.06,0.00,25.00,28.98,31.33,9.49,39.21,1018.20,2032.98,3444.92,3301.00,3590.00,499.78,494.00,4.69,0000 0000 0000 0000 000000
2014-06-20 08:29:18,0.02,0.06,0.00,25.02,29.00,31.35,9.49,39.36,1018.14,2032.95,3444.33,3300.92,3589.83,499.82,493.89,4.73,0000 0000 0000 0000 000000
2014-06-20 08:34:19,0.02,0.07,0.00,25.03,29.01,31.37,9.50,39.43,1018.20,2032.85,3444.01,3300.23,3589.13,499.80,493.98,4.77,0000 0000 0000 0000 000000
2014-06-20 08:39:20,-0.02,0.07,0.00,25.06,29.02,31.38,9.57,39.48,1018.12,2032.66,3443.78,3300.01,3588.99,500.12,494.05,4.81,0000 0000 0000 0000 000000
2014-06-20 08:44:21,-0.00,0.06,0.00,25.08,29.05,31.40,9.56,39.38,1018.09,2032.35,3443.05,3299.90,3588.50,500.11,494.03,4.86,0000 0000 0000 0000 000000
2014-06-20 08:49:22,0.01,0.06,0.00,25.09,29.06,31.41,9.50,39.36,1018.11,2032.19,3442.99,3299.51,3588.03,499.86,493.76,4.90,0000 0000 0000 0000 000000
2014-06-20 08:54:23,0.00,0.06,0.00,25.09,29.07,31.43,9.57,39.38,1018.12,2032.09,3442.76,3299.08,3587.96,500.00,493.76,4.94,0000 0000 0000 0000 000000
2014-06-20 08:59:23,0.02,0.07,0.00,25.13,29.09,31.45,9.43,39.41,1018.15,2032.04,3442.03,3298.93,3587.15,499.81,493.75,4.98,0000 0000 0000 0000 000000
2014-06-20 09:04:24,0.02,0.07,0.00,25.15,29.10,31.46,9.53,39.26,1018.10,2032.01,3441.72,3298.29,3587.00,500.19,494.06,5.02,0000 0000 0000 0000 000000
2014-06-20 09:09:25,0.02,0.07,0.00,25.16,29.12,31.48,9.44,39.40,1018.10,2032.01,3441.07,3298.02,3586.94,499.89,493.72,5.06,0000 0000 0000 0000 000000
2014-06-20 09:14:26,0.01,0.07,0.00,25.18,29.14,31.50,9.57,39.48,1018.10,2032.00,3441.00,3298.00,3586.40,500.19,494.04,5.11,0000 0000 0000 0000 000000
2014-06-20 09:19:27,0.01,0.07,0.00,25.19,29.15,31.51,9.55,39.36,1018.10,2032.00,3440.78,3297.91,3586.03,499.90,493.75,5.15,0000 0000 0000 0000 000000
2014-06-20 09:24:28,0.02,0.07,0.00,25.20,29.17,31.53,9.49,39.16,1018.12,2032.00,3440.18,3297.57,3586.00,500.19,493.87,5.19,0000 0000 0000 0000 000000
2014-06-20 09:29:29,0.01,0.07,0.00,25.23,29.18,31.55,9.48,39.34,1018.18,2032.00,3440.01,3297.08,3585.91,499.86,493.76,5.23,0000 0000 0000 0000 000000
2014-06-20 09:34:31,0.01,0.07,0.00,25.25,29.20,31.56,9.53,39.44,1018.27,2032.00,3439.94,3297.00,3585.22,500.22,493.86,5.27,0000 0000 0000 0000 000000
2014-06-20 09:39:32,0.02,0.07,0.00,25.25,29.21,31.57,9.49,39.43,1018.47,2031.99,3439.14,3296.81,3584.89,499.90,493.92,5.32,0000 0000 0000 0000 000000
2014-06-20 09:44:33,0.05,0.07,0.00,25.26,29.22,31.59,9.57,39.47,1018.43,2031.97,3438.24,3296.04,3584.05,500.42,494.12,5.36,0000 0000 0000 0000 000000
2014-06-20 09:49:34,0.01,0.07,0.00,25.28,29.25,31.61,9.49,39.38,1018.44,2031.97,3438.00,3295.76,3583.90,499.95,493.78,5.40,0000 0000 0000 0000 000000
2014-06-20 09:54:35,0.01,0.08,0.00,25.30,29.25,31.62,9.56,39.42,1018.45,2031.84,3437.79,3295.12,3583.20,500.48,494.30,5.44,0000 0000 0000 0000 000000
2014-06-20 09:59:37,0.00,0.08,0.00,25.32,29.27,31.63,9.49,39.44,1018.45,2031.64,3437.08,3294.93,3583.00,499.94,493.53,5.48,0000 0000 0000 0000 000000
2014-06-20 10:04:38,0.03,0.08,0.00,25.33,29.29,31.64,9.46,39.36,1018.37,2031.38,3436.18,3294.12,3582.31,500.26,493.90,5.52,0000 0000 0000 0000 000000
2014-06-20 10:09:39,0.01,0.08,0.00,25.35,29.30,31.65,9.50,39.35,1018.32,2031.11,3435.26,3293.70,3581.83,499.92,493.52,5.57,0000 0000 0000 0000 000000
2014-06-20 10:14:40,0.03,0.08,0.00,25.37,29.32,31.67,9.51,39.45,1018.57,2031.06,3434.62,3293.04,3581.07,500.14,493.79,5.61,0000 0000 0000 0000 000000
2014-06-20 10:19:41,0.03,0.08,0.00,25.40,29.33,31.68,9.54,39.46,1018.57,2031.01,3433.88,3292.66,3580.64,499.96,493.73,5.65,0000 0000 0000 0000 000000
2014-06-20 10:24:42,0.03,0.08,0.00,25.42,29.35,31.70,9.55,39.34,1018.41,2031.01,3433.10,3292.05,3580.00,500.32,493.98,5.69,0000 0000 0000 0000 000000
2014-06-20 10:29:44,0.06,0.08,0.00,25.45,29.37,31.72,9.52,39.41,1018.24,2031.00,3432.28,3291.30,3579.13,500.04,493.50,5.73,0000 0000 0000 0000 000000
2014-06-20 10:34:45,0.01,0.08,0.00,25.49,29.39,31.74,9.47,39.20,1018.56,2031.00,3431.82,3290.97,3578.83,500.12,493.64,5.78,0000 0000 0000 0000 000000
2014-06-20 10:39:46,0.05,0.09,0.00,25.53,29.40,31.76,9.45,39.34,1018.48,2031.00,3430.93,3290.13,3578.00,500.12,493.53,5.82,0000 0000 0000 0000 000000
2014-06-20 10:44:47,0.02,0.09,0.00,25.55,29.42,31.79,9.54,39.37,1018.54,2030.98,3430.06,3289.95,3577.26,500.05,493.30,5.86,0000 0000 0000 0000 000000
2014-06-20 10:49:48,0.01,0.09,0.00,25.58,29.45,31.81,9.51,39.33,1018.46,2030.94,3429.97,3289.58,3577.00,500.14,493.28,5.90,0000 0000 0000 0000 000000
2014-06-20 10:54:49,0.04,0.09,0.00,25.63,29.46,31.84,9.48,39.21,1018.42,2030.94,3429.42,3288.97,3576.68,499.57,492.94,5.94,0000 0000 0000 0000 000000
2014-06-20 10:59:51,0.03,0.09,0.00,25.65,29.48,31.87,9.53,39.25,1018.42,2030.89,3428.72,3288.25,3575.95,500.13,493.11,5.98,0000 0000 0000 0000 000000
2014-06-20 11:04:52,-0.00,0.09,0.00,25.68,29.50,31.90,9.54,39.23,1018.45,2030.56,3428.00,3287.99,3575.11,500.27,493.44,6.03,0000 0000 0000 0000 000000
2014-06-20 11:09:53,-0.02,0.09,0.00,25.71,29.52,31.92,9.44,39.27,1018.46,2030.15,3427.29,3287.62,3574.87,499.86,492.91,6.07,0000 0000 0000 0000 000000
2014-06-20 11:14:55,0.02,0.09,0.00,25.71,29.55,31.94,9.47,39.19,1018.55,2030.05,3427.00,3287.03,3574.21,500.01,493.13,6.11,0000 0000 0000 0000 000000
2014-06-20 11:19:56,0.00,0.09,0.00,25.73,29.56,31.96,9.42,39.06,1018.55,2030.03,3426.95,3287.00,3574.01,499.96,493.03,6.15,0000 0000 0000 0000 000000
2014-06-20 11:24:57,0.01,0.09,0.00,25.75,29.58,31.97,9.49,39.15,1018.48,2030.01,3426.37,3286.94,3573.97,499.92,493.02,6.19,0000 0000 0000 0000 000000
2014-06-20 11:29:58,0.03,0.09,0.00,25.75,29.60,31.98,9.50,39.10,1018.25,2030.00,3426.01,3286.28,3573.47,500.11,493.00,6.24,0000 0000 0000 0000 000000
2014-06-20 11:34:59,0.01,0.10,0.00,25.76,29.61,31.99,9.50,39.04,1018.46,2030.00,3425.75,3286.03,3573.07,500.24,493.14,6.28,0000 0000 0000 0000 000000
2014-06-20 11:40:01,0.01,0.10,0.00,25.74,29.62,32.01,9.51,39.24,1018.20,2030.00,3425.10,3285.99,3573.00,500.07,492.98,6.32,0000 0000 0000 0000 000000
2014-06-20 11:45:02,0.01,0.10,0.00,25.69,29.64,32.02,9.48,39.17,1018.13,2029.99,3425.00,3285.89,3572.84,500.13,492.86,6.36,0000 0000 0000 0000 000000
2014-06-20 11:50:03,0.02,0.10,0.00,25.63,29.65,32.05,9.54,39.14,1018.11,2029.99,3424.83,3285.52,3572.30,499.89,492.95,6.40,0000 0000 0000 0000 000000
2014-06-20 11:55:04,0.02,0.10,0.00,25.56,29.65,32.07,9.64,39.10,1018.11,2029.98,3424.08,3285.04,3572.00,500.68,493.87,6.44,0000 0000 0000 0000 000000
2014-06-20 12:00:05,-0.00,0.10,0.00,25.49,29.65,32.08,9.52,39.08,1018.11,2029.96,3424.00,3285.00,3572.00,500.22,493.44,6.49,0000 0000 0000 0000 000000
2014-06-20 12:05:06,0.00,0.10,0.00,25.45,29.66,32.09,9.55,39.31,1018.12,2029.97,3423.98,3285.00,3571.99,499.96,493.34,6.53,0000 0000 0000 0000 000000
2014-06-20 12:10:07,0.04,0.10,0.00,25.39,29.66,32.10,9.46,39.12,1018.23,2029.96,3423.39,3284.74,3571.44,499.82,493.39,6.57,0000 0000 0000 0000 000000
2014-06-20 12:15:09,0.03,0.10,0.00,25.34,29.66,32.08,9.58,39.17,1018.29,2029.97,3422.50,3284.06,3571.00,500.35,493.96,6.61,0000 0000 0000 0000 000000
2014-06-20 12:20:10,0.00,0.10,0.00,25.33,29.65,32.08,9.50,39.06,1018.11,2029.97,3422.00,3284.00,3570.82,499.96,493.49,6.65,0000 0000 0000 0000 000000
2014-06-20 12:25:11,0.00,0.10,0.00,25.31,29.65,32.07,9.49,39.28,1018.10,2029.96,3421.91,3283.98,3570.41,499.92,493.45,6.70,0000 0000 0000 0000 000000
2014-06-20 12:30:12,0.02,0.10,0.00,25.29,29.65,32.06,9.55,39.19,1018.10,2029.92,3421.23,3283.69,3570.02,500.36,494.02,6.74,0000 0000 0000 0000 000000
2014-06-20 12:35:13,0.02,0.10,0.00,25.25,29.65,32.05,9.45,39.19,1018.09,2029.90,3420.87,3283.08,3569.95,499.23,493.02,6.78,0000 0000 0000 0000 000000
2014-06-20 12:40:15,0.08,0.11,0.00,25.24,29.64,32.05,9.53,39.30,1018.09,2029.92,3419.22,3282.18,3569.04,500.19,493.69,6.82,0000 0000 0000 0000 000000
2014-06-20 12:45:16,0.01,0.11,0.00,25.22,29.62,32.03,9.52,39.17,1018.08,2029.93,3418.98,3282.00,3568.73,500.17,493.91,6.86,0000 0000 0000 0000 000000
2014-06-20 12:50:17,0.01,0.11,0.00,25.20,29.62,32.03,9.50,39.33,1018.07,2029.93,3418.78,3282.00,3568.39,499.94,493.60,6.91,0000 0000 0000 0000 000000
2014-06-20 12:55:18,0.01,0.11,0.00,25.18,29.61,32.01,9.54,39.44,1018.08,2029.93,3418.09,3281.98,3568.05,499.91,493.72,6.95,0000 0000 0000 0000 000000
2014-06-20 13:00:19,0.00,0.11,0.00,25.14,29.60,31.99,9.56,39.31,1018.08,2029.97,3418.02,3281.98,3568.02,499.81,493.57,6.99,0000 0000 0000 0000 000000
2014-06-20 13:05:21,0.00,0.11,0.00,25.10,29.58,31.99,9.56,39.31,1018.07,2029.97,3418.00,3281.95,3568.00,500.05,493.82,7.03,0000 0000 0000 0000 000000